Weather History for KEVV - February, 2013

Change the Weather History Date:

Wednesday, February 27, 2013

  Actual Average Record
Temperature  
Mean Temperature 37 °F 40 °F  
Max Temperature 40 °F 50 °F 77 °F (1996)
Min Temperature 33 °F 30 °F -1 °F (1934)
Degree Days  
Heating Degree Days 28 25  
Month to date heating degree days 769 771  
Since 1 July heating degree days 3334 3550  
Cooling Degree Days 0 0  
Month to date cooling degree days 0 0  
Year to date cooling degree days 0 0  
Moisture  
Dew Point 30 °F    
Average Humidity 72    
Maximum Humidity 85    
Minimum Humidity 59    
Precipitation  
Precipitation 0.03 in 0.11 in 1.24 in (1996)
Month to date precipitation 2.74 3.06  
Year to date precipitation 9.51 6.16  
Snow  
Snow T in 0.10 in 6.90 in (1984)
Month to date snowfall 1.3 3.7  
Since 1 July snowfall 12.3 10.6  
Snow Depth 0.00 in    
Sea Level Pressure  
Sea Level Pressure 29.78 in    
Wind  
Wind Speed 14 mph (WSW)    
Max Wind Speed 24 mph    
Max Gust Speed 30 mph    
Visibility 9 miles    
Events Rain , Snow    
T = Trace of Precipitation, MM = Missing Value Source: NWS Daily Summary

Daily Weather History Graph

Daily Weather History Graph

Search for Another Location

Airport or City:

Trip Planner

Search our weather history database for the weather conditions in past years. The results will help you decide how hot, cold, wet, or windy it might be!

Date:

Astronomy

Feb. 27, 2013 Rise Set
Actual Time 6:24 AM CST 5:41 PM CST
Civil Twilight 5:57 AM CST 6:08 PM CST
Nautical Twilight 5:27 AM CST 6:38 PM CST
Astronomical Twilight 4:56 AM CST 7:09 PM CST
Moon 7:59 PM CST (2/27) 7:02 AM CST (2/27)
Length of Visible Light 12h 10m
Length of Day
11h 17m
Waning Gibbous, 96% of the Moon is Illuminated
Feb 27
Waning Gibbous
Mar 4
Last Quarter
Mar 11
New
Mar 19
First Quarter
Mar 27
Full

Hourly Weather History & Observations

Time (CST) Temp. Windchill Dew Point Humidity Pressure Visibility Wind Dir Wind Speed Gust Speed Precip Events Conditions
12:49 AM 39.2 °F 30.2 °F 35.6 °F 87% 29.64 in 9.0 mi West 17.3 mph 28.8 mph 0.00 in Rain Light Rain
12:54 AM 39.0 °F 29.9 °F 35.1 °F 86% 29.65 in 10.0 mi WSW 17.3 mph 28.8 mph 0.00 in Rain Light Rain
1:04 AM 39.2 °F 29.8 °F 35.6 °F 87% 29.65 in 10.0 mi WSW 18.4 mph 26.5 mph 0.00 in   Overcast
1:54 AM 37.9 °F 29.6 °F 34.0 °F 86% 29.68 in 7.0 mi WSW 13.8 mph - 0.00 in   Overcast
2:37 AM 37.4 °F 30.8 °F 32.0 °F 81% 29.67 in 10.0 mi West 9.2 mph - N/A   Overcast
2:54 AM 37.0 °F 28.9 °F 32.0 °F 82% 29.69 in 10.0 mi WSW 12.7 mph - N/A   Overcast
3:54 AM 37.0 °F 28.5 °F 30.9 °F 79% 29.69 in 10.0 mi West 13.8 mph - N/A   Overcast
4:54 AM 36.0 °F 26.7 °F 30.9 °F 82% 29.72 in 9.0 mi WSW 15.0 mph 20.7 mph 0.00 in Rain Light Rain
5:54 AM 36.0 °F 25.6 °F 30.0 °F 79% 29.74 in 10.0 mi West 18.4 mph 29.9 mph 0.00 in   Overcast
6:54 AM 36.0 °F 27.1 °F 30.0 °F 79% 29.75 in 10.0 mi WSW 13.8 mph - N/A   Overcast
7:54 AM 36.0 °F 26.3 °F 30.0 °F 79% 29.77 in 10.0 mi WSW 16.1 mph - N/A   Overcast
8:25 AM 37.4 °F 28.9 °F 30.2 °F 75% 29.76 in 10.0 mi WSW 13.8 mph 25.3 mph N/A   Mostly Cloudy
8:34 AM 37.4 °F 27.8 °F 30.2 °F 75% 29.76 in 10.0 mi WSW 17.3 mph - N/A   Mostly Cloudy
8:54 AM 37.9 °F 28.9 °F 28.9 °F 70% 29.78 in 10.0 mi WSW 16.1 mph 27.6 mph N/A   Overcast
9:11 AM 37.4 °F 27.5 °F 28.4 °F 70% 29.77 in 10.0 mi WSW 18.4 mph 24.2 mph N/A   Overcast
9:18 AM 37.4 °F 29.8 °F 28.4 °F 70% 29.77 in 10.0 mi WSW 11.5 mph 24.2 mph N/A   Overcast
9:31 AM 37.4 °F 28.5 °F 28.4 °F 70% 29.77 in 10.0 mi WSW 15.0 mph 20.7 mph N/A   Overcast
9:38 AM 37.4 °F 29.3 °F 28.4 °F 70% 29.77 in 10.0 mi WSW 12.7 mph - N/A   Overcast
9:54 AM 37.9 °F 28.9 °F 28.9 °F 70% 29.78 in 10.0 mi WSW 16.1 mph - N/A   Overcast
10:20 AM 37.4 °F 28.2 °F 28.4 °F 70% 29.78 in 10.0 mi West 16.1 mph 23.0 mph N/A   Overcast
10:31 AM 37.4 °F 29.8 °F 28.4 °F 70% 29.78 in 10.0 mi WSW 11.5 mph 20.7 mph N/A   Overcast
10:47 AM 37.4 °F 28.5 °F 28.4 °F 70% 29.78 in 10.0 mi West 15.0 mph 24.2 mph N/A   Overcast
10:54 AM 37.9 °F 28.5 °F 28.0 °F 68% 29.79 in 10.0 mi WSW 17.3 mph 24.2 mph N/A   Overcast
11:17 AM 37.4 °F 28.9 °F 28.4 °F 70% 29.77 in 10.0 mi WSW 13.8 mph - N/A   Overcast
11:54 AM 37.9 °F 28.5 °F 28.0 °F 68% 29.78 in 10.0 mi WSW 17.3 mph 25.3 mph N/A   Overcast
12:54 PM 39.0 °F 30.6 °F 27.0 °F 62% 29.78 in 10.0 mi WSW 15.0 mph 25.3 mph N/A   Overcast
1:54 PM 39.0 °F 29.9 °F 28.0 °F 65% 29.78 in 10.0 mi WSW 17.3 mph 24.2 mph 0.00 in   Overcast
2:54 PM 37.9 °F 29.6 °F 30.0 °F 73% 29.79 in 9.0 mi West 13.8 mph 26.5 mph 0.00 in Snow Light Snow
3:09 PM 37.4 °F 28.2 °F 30.2 °F 75% 29.78 in 9.0 mi WSW 16.1 mph - 0.00 in Rain Light Rain
3:22 PM 37.4 °F 28.5 °F 32.0 °F 81% 29.78 in 10.0 mi WSW 15.0 mph - 0.00 in Rain Light Rain
3:42 PM 37.4 °F 28.5 °F 30.2 °F 75% 29.79 in 10.0 mi WSW 15.0 mph - 0.00 in Rain Light Rain
3:54 PM 37.0 °F 27.7 °F 32.0 °F 82% 29.80 in 8.0 mi SW 16.1 mph - 0.00 in Rain Light Rain
4:22 PM 37.4 °F 28.9 °F 32.0 °F 81% 29.79 in 10.0 mi WSW 13.8 mph - 0.01 in Rain Light Rain
4:42 PM 37.4 °F 29.3 °F 32.0 °F 81% 29.80 in 10.0 mi WSW 12.7 mph - 0.01 in Rain Light Rain
4:54 PM 35.1 °F 24.5 °F 30.9 °F 85% 29.82 in 2.5 mi West 18.4 mph 24.2 mph 0.01 in Snow Light Snow
4:57 PM 33.8 °F 23.5 °F 30.2 °F 87% 29.81 in 1.8 mi West 16.1 mph 24.2 mph 0.01 in Snow Light Snow
5:11 PM 33.8 °F 24.8 °F 30.2 °F 87% 29.81 in 2.5 mi WSW 12.7 mph - 0.02 in Snow Light Snow
5:19 PM 35.6 °F 27.1 °F 30.2 °F 81% 29.81 in 6.0 mi West 12.7 mph - 0.02 in Snow Light Snow
5:26 PM 35.6 °F 27.5 °F 30.2 °F 81% 29.82 in 8.0 mi West 11.5 mph - 0.02 in   Overcast
5:54 PM 35.1 °F 27.9 °F 30.9 °F 85% 29.83 in 9.0 mi WSW 9.2 mph - 0.02 in Rain Light Rain
6:54 PM 34.0 °F 24.2 °F 30.0 °F 85% 29.86 in 10.0 mi West 15.0 mph 20.7 mph 0.00 in   Overcast
7:02 PM 33.8 °F 24.8 °F 30.2 °F 87% 29.84 in 10.0 mi West 12.7 mph 20.7 mph N/A   Overcast
7:54 PM 35.6 °F 27.5 °F 30.2 °F 81% 29.85 in 8.0 mi West 11.5 mph - N/A Snow Light Snow
8:54 PM 35.1 °F 26.4 °F 28.9 °F 78% 29.86 in 10.0 mi West 12.7 mph - 0.00 in   Overcast
9:01 PM 35.6 °F 26.6 °F 28.4 °F 75% 29.85 in 10.0 mi West 13.8 mph - N/A   Overcast
9:54 PM 34.0 °F 28.0 °F 28.9 °F 82% 29.87 in 7.0 mi West 6.9 mph - 0.00 in Snow Light Snow
10:42 PM 33.8 °F 25.8 °F 28.4 °F 81% 29.85 in 8.0 mi West 10.4 mph - 0.00 in   Overcast
10:54 PM 34.0 °F 25.5 °F 28.0 °F 79% 29.86 in 8.0 mi West 11.5 mph - 0.00 in   Overcast
11:54 PM 33.1 °F 24.4 °F 28.0 °F 82% 29.86 in 9.0 mi West 11.5 mph 19.6 mph 0.00 in   Overcast